Hourly Data Report for September 23, 2017

All times are specified in Local Standard Time (LST). Add 1 hour to adjust for Daylight Saving Time where and when it is observed.

CAPE DORSET A
NUNAVUT

64°13'49.000" N
76°31'30.000" W
48.20 m
2400637
71366
YTE

Download Data

Hourly Data (September 2017)
Hourly Data Report for September 23, 2017
Temp Definition
°C
Dew Point Temp Definition
°C
Rel Hum Definition
%
Wind Dir Definition
10's deg

Wind Spd Definition
km/h
Visibility Definition
km
Stn Press Definition
kPa
Hmdx Definition


Wind Chill Definition


Weather Definition


TIME
00:00 Legend Double Dagger -1.4 -3.0 89 36 9 16.1 100.98   -5 LegendNANA
01:00 Legend Double Dagger -1.7 -3.7 86 36 9 16.1 100.99   -5 LegendNANA
02:00 Legend Double Dagger -2.0 -3.7 88 35 9 16.1 101.01   -5 LegendNANA
03:00 Legend Double Dagger -2.1 -3.7 89 33 5 16.1 101.07   -4 LegendNANA
04:00 Legend Double Dagger -2.1 -3.8 88 30 5 16.1 101.09   -4 LegendNANA
05:00 Legend Double Dagger -2.0 -3.7 88 32 5 16.1 101.11   -4 LegendNANA
06:00 Legend Double Dagger -1.4 -4.4 80 32 9 16.1 101.16   -5 LegendNANA
07:00 Legend Double Dagger -1.3 -4.3 80 32 13 16.1 101.17   -6 LegendNANA
08:00 Legend Double Dagger -1.4 -4.4 80 31 11 16.1 101.17   -5 LegendNANA
09:00 Legend Double Dagger -0.9 -4.1 79 29 11 16.1 101.19   -5 LegendNANA
10:00 Legend Double Dagger -0.3 -3.5 79 29 15 16.1 101.19   -5 LegendNANA
11:00 Legend Double Dagger 0.2 -3.2 78 26 17 16.1 101.20     LegendNANA
12:00 Legend Double Dagger 0.1 -2.8 81 26 24 16.1 101.19     LegendNANA
13:00 Legend Double Dagger 0.1 -2.3 84 25 26 16.1 101.15     LegendNANA
14:00 Legend Double Dagger 0.9 -1.6 83 25 22 16.1 101.12     LegendNANA
15:00 Legend Double Dagger 1.2 -1.1 85 26 24 16.1 101.10     LegendNANA
16:00 Legend Double Dagger 1.6 -1.3 81 30 22 16.1 101.12     LegendNANA
17:00 Legend Double Dagger 0.9 -2.8 76 32 17 16.1 101.14     LegendNANA
18:00 Legend Double Dagger 0.3 -2.5 81 34 18 16.1 101.14     LegendNANA
19:00 Legend Double Dagger -0.5 -3.5 80 34 17 16.1 101.17   -5 LegendNANA
20:00 Legend Double Dagger -0.8 -3.7 81 34 18 16.1 101.18   -6 LegendNANA
21:00 Legend Double Dagger -0.8 -3.6 81 29 15 16.1 101.18   -5 LegendNANA
22:00 Legend Double Dagger -1.4 -4.0 83 30 21 16.1 101.12   -7 LegendNANA
23:00 Legend Double Dagger -1.4 -3.9 83 30 15 16.1 101.10   -6 LegendNANA

Notes on Data Quality.

Legend

  • E = Estimated
  • M = Missing
  • NA = Not Available
  • ‡ = Partner data that is not subject to review by the National Climate Archives
Date modified: